User: anonymous   Login
Location: Unspecified
(43.4354°N, 0.0000°E)
Time: 00:52:50
(UTC+00:00)
Language:

Transit 2A - Orbit

View from above orbital plane
View from above orbital plane
View from above satellite
View from above satellite

Ground track
Ground track

The orbit data is extracted from the following two-line orbital elements,

1    45U 60007A   19177.19766068 -.00000071  00000-0  93992-5 0  9996
2    45  66.6938 242.3225 0260325 217.0151 141.2745 14.33641805 71494
Epoch (UTC): 26 June 2019 04:44:37
Eccentricity: 0.0260325
inclination: 66.6938°
perigee height: 593 km
apogee height: 966 km
right ascension of ascending node: 242.3225°
argument of perigee: 217.0151°
revolutions per day: 14.33641805
mean anomaly at epoch: 141.2745°
orbit number at epoch: 7149

The dashed part of the orbit path shows where the satellite is in the earth's shadow,  

DLR